Location: Mahannah Oil Field
(37.4664°N, 96.6003°W)
Time: 15:14:05
(UTC+00:00)

X-37B - Pass Details

Date: 29 November 2020
Orbit: 384 x 390 km, 45.0° (Epoch: 02 January)

Event Time Altitude Azimuth Distance (km) Brightness Sun altitude
Rises 00:48:19 0° 262° (W) 2,258 6.1 -19.3°
Reaches altitude 10° 00:50:29 10° 270° (W) 1,407 4.6 -19.7°
Enters shadow 00:53:22 37° 336° (NNW) 623 1.6 -20.3°
